Location: Aldenham
(51.6667°N, 0.3500°W)
Time: 02:31:02
(UTC+00:00)

Altair - Pass Details

Date: 25 February 2026
Orbit: 1502 x 1682 km, 47.2° (Epoch: 13 March)

Event Time Altitude Azimuth Distance (km) Brightness Sun altitude
Rises 10:20:21 0° 285° (WNW) 4,711 9.7 24.5°
Reaches altitude 10° 10:24:59 10° 265° (W) 3,756 9.4 24.9°
Maximum altitude 10:30:01 16° 232° (SW) 3,348 9.5 25.3°
Drops below altitude 10° 10:35:08 10° 200° (SSW) 3,825 10.3 25.7°
Sets 10:39:58 0° 180° (S) 4,842 11.1 26.0°
